Vertical_Velocity
2 4 4 2 -0 -1 -1 -17 26 -12 -9 -1 -6 -7 -6 11 -3 4 0 -4 -3 -1 -0 0 -1 1 0 -6 -2 -3 -1 -1 -0 1 -1 -1 -3 -1 -0 -1 -1 -1 -0 -3 -2 -1 -0 -1 -2
3 1 3 1 3 7 -11 -10 -4 -11 -1 -11 -5 -1 -2 6 -5 0 1 -3 -1 3 -0 0 0 1 -1 1 -1 -4 -1 -3 -1 0 0 -3 0 0 1 -0 -1 -1 -1 -1 -2 -1 -1 -1 -2
6 11 -2 2 -3 -6 -5 16 17 -1 -3 -6 1 -1 15 4 -6 -0 8 1 -4 5 0 1 1 2 1 -1 -1 -2 -2 -1 -2 -4 -5 -2 -2 -1 -1 -1 -2 -1 -1 -1 -1 -1 -0 -1 -2
9 7 -1 0 5 -20 -7 14 -4 -2 -9 -1 -3 7 -2 2 -4 2 0 1 -4 3 6 -1 0 2 1 -1 -0 0 -3 -2 -4 -4 -0 -2 -1 -2 -3 -2 -1 -2 -1 -0 -0 -0 -0 -1 -0
-11 0 -0 1 -12 6 -13 16 -4 0 -1 4 -0 14 -6 -0 3 2 3 1 -1 -7 4 3 2 2 0 -0 -0 -2 -1 -7 -7 2 -3 -2 -1 -2 -2 -2 -1 -0 -1 -2 -1 -0 -1 -1 -1
6 2 5 -12 -3 -10 8 33 -10 0 -4 -2 9 27 -6 -2 0 1 2 1 -4 3 2 -0 -0 1 1 0 0 -0 -1 -3 -1 -3 -2 -3 -3 -1 -1 -1 -1 -2 -1 -1 -1 -1 -1 -2 -1
-10 3 -9 2 -17 18 -26 26 -16 -11 6 -8 4 18 -3 -5 0 1 1 1 -1 1 5 4 2 1 -0 1 -1 -2 -1 2 -2 -6 -5 -3 -4 -2 -2 -1 -2 -1 -0 -1 -2 -2 -2 -1 -1
5 -7 1 3 7 -9 15 19 -11 -2 -8 15 -15 14 -1 3 1 1 1 -0 0 -3 4 1 1 3 3 2 -1 -0 -0 1 -2 -2 -4 -3 -3 -3 -1 -2 -2 -1 -2 -2 -2 -1 -2 -2 -1
11 16 -20 -19 -4 -15 24 21 7 2 -3 2 4 1 -2 5 0 1 -2 1 0 2 -7 4 -0 -0 -0 -1 1 2 0 -0 1 1 -1 -0 0 -1 -3 -2 -2 -2 -2 -1 -2 -3 -3 -1 -2
-11 3 -9 -7 9 -1 9 39 -3 -1 -6 5 6 -6 -1 2 1 0 -3 -1 -4 -1 -1 -10 2 -0 -2 -2 1 0 1 3 -2 1 1 -1 -0 -2 1 -2 -3 -2 -1 -1 -0 -0 -1 -1 -1
-3 -19 2 2 24 -7 1 9 16 8 -0 3 3 -6 -0 3 1 2 2 1 0 -1 1 1 -7 -3 0 -7 5 -1 3 -1 -0 -1 3 -0 -3 0 3 -1 -1 -3 -4 -2 -1 -1 -2 -1 0
-4 5 3 17 -6 -6 0 0 -5 -0 3 17 8 19 -10 -0 2 2 1 2 0 2 -2 -2 -1 -3 -1 1 -4 1 -1 1 -1 -4 6 -2 -2 2 -4 6 -0 -2 -2 -2 -4 -2 -2 -2 -5
-8 1 2 8 -8 -3 2 -2 -7 -2 -4 6 -0 -1 -3 -1 -0 1 3 -0 -3 -1 0 3 -2 -1 0 -2 4 -2 -0 0 -2 -5 2 4 -3 -0 3 -3 4 0 1 -3 2 -3 -3 2 -1
1 -6 9 14 -7 -3 -0 -7 -1 -4 16 -2 -1 2 1 -1 -2 -3 0 0 2 -5 -0 0 -1 -1 -2 0 -2 1 -2 -2 -2 1 -3 -4 -3 -2 -1 0 -2 6 1 3 -2 -1 -6 -3 -2
3 1 -4 1 -10 -6 -1 -12 -26 6 -1 -3 -3 2 0 0 -4 1 -1 2 0 4 -1 -1 5 1 -2 -2 -1 -1 0 -1 1 1 2 -0 -0 -2 -3 1 -1 -0 -1 -1 3 1 3 1 -3
9 -2 2 2 2 -6 -3 -3 3 -4 -4 -1 1 1 0 -0 -0 1 2 1 4 4 -1 -12 -0 3 -1 0 0 -2 -1 -1 -1 -2 -3 -1 -1 0 -3 1 2 -3 0 4 -3 -0 2 -0 0
12 -7 -6 6 -3 3 -8 -2 3 -5 1 2 -3 1 -0 -2 -0 -2 1 0 1 0 4 4 -3 -8 3 -0 0 4 1 -1 3 -2 -1 0 -4 -0 1 -1 1 3 -5 -2 4 0 -1 1 1
-14 -9 2 -4 -7 0 1 -6 -4 -0 -3 -2 -0 -0 -2 -2 -0 2 3 -2 -7 -5 -3 -2 1 2 -3 -4 -3 4 1 1 3 -2 -2 -1 -0 -0 -1 2 1 2 4 -2 -1 2 2 -1 3
-3 -2 -7 -14 -3 3 -3 5 -1 2 -9 -1 0 -1 -0 -3 2 -1 -6 -5 -1 2 4 4 4 2 3 5 1 -10 6 8 3 6 1 -2 4 -1 2 0 -0 -0 -1 1 0 1 3 0 -0
2 -2 -13 26 3 7 2 -7 1 -6 -4 -9 1 -1 1 3 -1 -7 -8 2 3 2 -3 -2 0 -0 -0 0 6 2 -6 -0 2 1 2 2 -2 2 4 -2 3 5 4 1 -3 0 4 2 -1
8 5 -5 1 4 5 2 -3 -3 -4 -2 -8 -5 0 1 -1 1 -3 -2 1 -2 2 5 0 1 3 2 2 -1 4 -5 -6 -0 3 4 5 10 6 1 -1 -0 4 9 2 6 -0 6 4 4
-3 3 10 -7 -1 -7 -3 -4 -6 2 -2 -2 -2 -0 -1 1 -1 1 -4 -0 2 -0 0 0 -1 0 1 -1 1 -0 2 -2 -6 -2 0 2 3 4 11 12 -4 -3 -2 4 2 3 -0 8 1
2 7 7 -0 -9 10 3 4 -10 -5 -6 -1 1 -0 -1 1 -2 -0 1 -1 -1 -0 -0 0 -0 -1 0 -1 -2 -0 -0 3 3 -4 -3 -2 -3 -4 3 5 7 0 -2 1 5 4 3 -2 8
1 10 -0 -3 7 1 -2 -1 1 -12 -7 1 -0 0 0 -0 -1 2 -0 -1 1 -1 0 -1 -1 1 -1 -0 1 -1 -0 -0 -1 3 -1 2 0 2 -5 -2 -1 1 5 2 5 5 4 7 7
13 -2 2 5 3 -4 9 8 -3 6 -3 -0 1 -0 -0 1 -0 0 -0 -1 -1 0 0 -0 -1 -2 -1 -2 -2 -1 -0 0 -0 1 -1 -2 -2 -1 -0 0 0 -4 -0 1 4 4 2 5 6
7 -0 -1 -3 -2 -1 0 -4 6 6 -1 1 -0 -4 0 -1 0 -0 -1 -1 -2 -0 -0 -0 -2 -2 -2 0 -0 -3 -1 0 1 1 0 1 -1 -1 -1 -3 3 1 2 1 2 -0 5 4 4
-3 -0 -2 1 1 -1 -5 3 -1 5 2 -2 -0 1 -1 -0 -1 -1 -2 -2 -1 -2 -2 -3 -2 -2 -1 0 -2 -3 -1 -3 -2 -2 1 2 0 1 3 1 -0 1 -5 -4 -3 -4 -1 -0 4
-2 5 1 -1 -2 0 2 -0 -5 -3 -4 1 -0 -0 -1 1 1 0 -1 -0 -1 -1 -2 -2 -1 -1 -0 -1 -1 1 -2 -1 -1 2 -1 3 3 -0 2 1 1 -1 1 1 0 -1 -1 1 2
1 1 -5 0 1 -2 -0 0 -1 2 0 1 -1 -0 2 -1 0 -0 -2 -3 -2 -2 -3 -2 -2 -1 -1 0 -1 1 2 -2 1 0 2 -1 -0 -1 -2 0 0 5 3 1 4 3 -1 2 4
1 8 -7 1 2 0 -1 -1 -3 -1 4 4 0 3 -1 -2 0 -2 -3 -3 -2 -2 -1 -1 -1 -1 1 -0 1 -0 0 -1 0 -3 -2 1 -3 -1 0 -1 -2 1 -1 -0 -2 -2 -2 2 4
Height
3137 3140 3142 3144 3150 3148 3147 3149 3150 3152 3154 3155 3156 3160 3162 3165 3164 3167 3167 3169 3173 3175 3177 3179 3180 3181 3181 3181 3181 3182 3182 3182 3182 3182 3182 3182 3182 3182 3181 3181 3181 3181 3181 3180 3180 3181 3181 3182 3182
3134 3138 3141 3142 3144 3144 3145 3146 3147 3152 3151 3153 3156 3159 3161 3161 3163 3164 3166 3168 3171 3174 3176 3178 3180 3181 3181 3182 3182 3183 3183 3184 3183 3183 3183 3183 3183 3183 3182 3182 3182 3182 3181 3182 3182 3182 3183 3183 3183
3132 3136 3138 3139 3139 3140 3142 3145 3146 3148 3150 3153 3156 3158 3161 3159 3161 3164 3166 3167 3169 3173 3175 3177 3179 3180 3181 3182 3183 3183 3184 3184 3185 3185 3184 3184 3183 3183 3184 3183 3183 3183 3183 3182 3183 3183 3183 3183 3184
3129 3134 3136 3134 3135 3137 3138 3143 3144 3145 3149 3152 3154 3157 3157 3158 3161 3163 3164 3166 3167 3171 3174 3176 3178 3180 3181 3182 3183 3184 3186 3186 3186 3185 3185 3185 3185 3185 3185 3185 3185 3184 3184 3184 3184 3183 3184 3184 3184
3122 3129 3132 3132 3133 3136 3138 3141 3144 3146 3149 3152 3154 3156 3157 3158 3160 3162 3163 3164 3165 3169 3172 3175 3177 3179 3180 3182 3184 3184 3185 3186 3186 3186 3187 3187 3187 3187 3187 3186 3186 3186 3186 3185 3185 3185 3185 3185 3185
3117 3125 3126 3127 3131 3133 3136 3139 3141 3145 3149 3151 3153 3154 3155 3157 3159 3161 3162 3164 3164 3169 3172 3174 3177 3179 3181 3182 3183 3185 3185 3184 3185 3187 3188 3188 3188 3188 3188 3187 3188 3188 3187 3187 3187 3187 3187 3186 3186
3111 3118 3120 3125 3129 3132 3134 3137 3140 3144 3147 3149 3150 3153 3152 3156 3158 3160 3162 3163 3164 3168 3171 3174 3176 3178 3179 3181 3183 3183 3183 3184 3186 3187 3188 3189 3189 3189 3189 3189 3189 3189 3189 3189 3189 3188 3188 3188 3188
3110 3115 3117 3122 3125 3130 3134 3136 3137 3142 3146 3147 3149 3149 3148 3154 3157 3159 3161 3163 3165 3167 3170 3172 3174 3176 3178 3180 3180 3181 3182 3184 3185 3186 3187 3188 3189 3189 3190 3190 3190 3191 3190 3190 3190 3189 3189 3189 3189
3108 3112 3113 3117 3120 3127 3131 3134 3134 3140 3143 3144 3148 3146 3149 3153 3155 3158 3160 3162 3164 3166 3167 3170 3172 3174 3175 3177 3178 3179 3181 3182 3184 3185 3186 3187 3188 3189 3190 3190 3191 3191 3191 3190 3190 3190 3190 3190 3189
3101 3103 3107 3118 3123 3124 3125 3130 3133 3136 3139 3142 3143 3145 3148 3151 3154 3156 3159 3161 3162 3164 3166 3167 3169 3171 3172 3175 3176 3178 3179 3181 3183 3184 3184 3185 3187 3188 3188 3189 3189 3190 3190 3190 3190 3190 3190 3190 3189
3096 3099 3107 3115 3115 3119 3123 3127 3130 3133 3136 3140 3142 3143 3146 3149 3152 3155 3157 3159 3161 3163 3164 3166 3166 3169 3170 3172 3175 3176 3178 3179 3180 3183 3183 3184 3185 3186 3187 3187 3187 3188 3189 3189 3189 3189 3189 3189 3188
3094 3098 3104 3112 3112 3116 3121 3122 3126 3131 3136 3137 3137 3138 3142 3147 3150 3153 3156 3158 3160 3161 3163 3164 3166 3167 3168 3170 3172 3173 3175 3176 3178 3180 3182 3181 3182 3184 3184 3185 3185 3186 3186 3186 3187 3186 3186 3186 3185
3090 3096 3102 3105 3106 3111 3115 3120 3123 3128 3131 3132 3134 3137 3140 3144 3147 3150 3153 3155 3157 3159 3160 3162 3163 3165 3167 3169 3170 3171 3172 3173 3174 3176 3178 3178 3179 3181 3181 3182 3183 3182 3183 3183 3184 3184 3183 3183 3182
3089 3094 3098 3101 3102 3106 3111 3116 3121 3125 3128 3128 3132 3135 3138 3141 3143 3146 3150 3152 3154 3155 3158 3160 3162 3163 3164 3166 3167 3168 3169 3170 3171 3172 3173 3174 3175 3176 3177 3177 3178 3179 3178 3178 3179 3179 3178 3179 3179
3087 3092 3095 3098 3099 3104 3108 3112 3114 3120 3123 3125 3128 3131 3134 3136 3139 3143 3145 3148 3150 3152 3152 3156 3159 3160 3161 3162 3164 3164 3166 3167 3168 3169 3169 3170 3170 3170 3171 3172 3172 3173 3173 3174 3174 3174 3174 3174 3174
3085 3089 3094 3096 3098 3102 3106 3107 3112 3115 3118 3121 3124 3126 3129 3133 3135 3139 3141 3143 3145 3146 3147 3148 3153 3156 3157 3159 3160 3161 3162 3163 3163 3164 3165 3166 3166 3167 3166 3167 3167 3168 3170 3169 3169 3169 3169 3169 3169
3080 3084 3089 3094 3097 3099 3102 3104 3110 3111 3114 3117 3120 3123 3125 3128 3131 3133 3135 3138 3140 3142 3145 3146 3147 3149 3153 3154 3155 3157 3158 3158 3159 3159 3161 3161 3161 3162 3162 3162 3163 3162 3162 3165 3165 3163 3163 3163 3163
3074 3081 3086 3089 3093 3095 3098 3099 3106 3107 3110 3113 3116 3118 3120 3123 3126 3128 3130 3130 3132 3135 3138 3141 3143 3145 3146 3147 3148 3152 3153 3154 3155 3155 3155 3155 3155 3155 3155 3156 3157 3157 3156 3155 3159 3160 3157 3157 3157
3076 3080 3083 3087 3090 3092 3093 3096 3102 3104 3105 3109 3112 3115 3116 3118 3121 3120 3121 3124 3127 3130 3133 3136 3137 3139 3141 3143 3142 3142 3145 3149 3150 3150 3149 3148 3148 3149 3149 3149 3150 3150 3149 3150 3149 3152 3152 3150 3151
3076 3079 3081 3086 3086 3090 3091 3091 3096 3100 3100 3105 3108 3109 3111 3113 3113 3112 3115 3119 3121 3123 3124 3127 3129 3131 3133 3134 3137 3136 3136 3136 3140 3142 3143 3143 3141 3142 3142 3141 3143 3144 3142 3141 3140 3143 3145 3143 3144
3075 3076 3079 3083 3084 3086 3088 3089 3090 3094 3098 3097 3100 3103 3105 3106 3107 3107 3109 3112 3114 3116 3119 3120 3122 3124 3125 3127 3127 3129 3126 3127 3128 3132 3134 3136 3136 3134 3133 3133 3133 3135 3135 3134 3134 3132 3135 3136 3135
3071 3075 3078 3080 3083 3085 3085 3085 3082 3087 3089 3091 3095 3097 3098 3100 3101 3103 3103 3106 3108 3110 3111 3113 3115 3116 3118 3118 3120 3120 3120 3118 3120 3121 3124 3124 3125 3126 3126 3125 3125 3125 3126 3126 3126 3127 3125 3126 3125
3071 3073 3075 3077 3082 3083 3083 3086 3078 3082 3083 3086 3088 3089 3090 3093 3095 3097 3099 3100 3102 3104 3105 3106 3108 3109 3110 3111 3112 3112 3112 3112 3112 3112 3112 3113 3114 3114 3115 3117 3117 3116 3116 3117 3117 3118 3117 3115 3116
3068 3070 3074 3079 3082 3081 3078 3080 3077 3076 3079 3081 3082 3084 3086 3089 3090 3092 3094 3095 3097 3099 3100 3101 3102 3104 3104 3105 3105 3105 3105 3105 3105 3105 3105 3105 3106 3106 3105 3106 3108 3108 3108 3107 3107 3107 3107 3106 3104
3063 3067 3076 3082 3080 3076 3071 3076 3072 3073 3074 3077 3078 3079 3081 3084 3086 3088 3091 3092 3094 3095 3096 3096 3097 3098 3098 3099 3099 3099 3099 3098 3099 3099 3098 3097 3098 3097 3097 3096 3096 3096 3097 3098 3097 3096 3096 3096 3095
3060 3064 3065 3067 3070 3069 3071 3070 3070 3071 3072 3074 3075 3076 3079 3081 3084 3086 3087 3088 3089 3090 3091 3092 3092 3092 3092 3092 3092 3091 3091 3093 3092 3092 3091 3090 3090 3089 3089 3088 3088 3088 3088 3088 3087 3087 3086 3087 3086
3058 3061 3064 3063 3062 3064 3065 3067 3068 3069 3068 3069 3073 3075 3077 3079 3081 3082 3083 3084 3085 3085 3085 3085 3085 3084 3084 3084 3083 3083 3083 3083 3083 3083 3082 3082 3082 3081 3080 3080 3079 3079 3079 3079 3078 3077 3076 3075 3075
3054 3061 3064 3062 3064 3061 3059 3059 3058 3061 3062 3066 3069 3072 3075 3076 3078 3078 3079 3080 3080 3080 3080 3079 3078 3076 3075 3075 3074 3074 3073 3073 3073 3073 3073 3072 3072 3072 3072 3072 3071 3070 3068 3067 3068 3067 3066 3065 3064
3053 3054 3059 3060 3059 3058 3059 3057 3055 3058 3059 3063 3067 3069 3072 3073 3074 3074 3074 3074 3075 3074 3073 3071 3070 3069 3068 3067 3066 3066 3065 3065 3065 3065 3065 3064 3064 3063 3063 3061 3061 3059 3058 3057 3055 3055 3055 3055 3054
3052 3055 3057 3060 3058 3057 3058 3058 3055 3056 3059 3062 3065 3067 3069 3070 3070 3070 3069 3069 3068 3067 3065 3064 3063 3062 3061 3061 3061 3060 3060 3060 3059 3058 3058 3057 3057 3056 3055 3053 3051 3049 3047 3045 3044 3043 3043 3042 3043